Regional Weather Roundup
Issued by NWS

Home | Current Version | Previous Version | Graphics & Text | Print | Product List | Glossary On
Versions: 1 2 3 4 5 6 7 8 9 10 11 12 13 14 15 16 17 18 19 20 21 22 23 24 25 26 27 28 29 30 31 32 33 34 35 36 37 38 39 40 41 42 43 44 45 46 47 48 49 50
000
ASUS43 KLSX 230507
RWRMO

WEATHER SUMMARY FOR MISSOURI
NATIONAL WEATHER SERVICE SPRINGFIELD MO
1200 AM CDT SAT MAY 23 2015

NOTE: "FAIR" INDICATES FEW OR NO CLOUDS BELOW 12,000 FEET WITH NO
       SIGNIFICANT WEATHER AND/OR OBSTRUCTIONS TO VISIBILITY.
       CURRENT SKY AND/OR WEATHER CONDITIONS ARE NOT AVAILABLE FOR
       CHILLICOTHE AND FARMINGTON.

MOZ001>031-035>038-043-044-053-054-230600-
...NORTHERN AND WESTERN MISSOURI...

CITY           SKY/WX    TMP DP  RH WIND       PRES   REMARKS
KANSAS CTY INT CLOUDY    61  51  70 SE9       30.21S
KANSAS C DTWN  CLOUDY    63  51  65 SE8       30.20F
LEE`S SUMMIT   CLOUDY    62  51  67 SE6       30.22S
ST JOSEPH      CLOUDY    60  51  72 E3        30.21F
CHILLICOTHE      N/A     60  55  83 CALM      30.23F
KIRKSVILLE     CLOUDY    54  53  97 CALM      30.24F

$$
MOZ066>068-077>081-088>096-101>105-230600-
...SOUTHWEST MISSOURI...

CITY           SKY/WX    TMP DP  RH WIND       PRES   REMARKS
SPRINGFIELD    CLOUDY    60  49  66 SE14      30.22S
JOPLIN         CLOUDY    61  50  67 SE8       30.20F

$$
MOZ032>034-039>042-045>050-055>058-069>072-230600-
...CENTRAL MISSOURI...

CITY           SKY/WX    TMP DP  RH WIND       PRES   REMARKS
COLUMBIA       CLOUDY    62  53  72 E6        30.23F
JEFFERSON CITY CLOUDY    62  55  77 SE5       30.23F
ROLLA          CLOUDY    61  52  72 SE6       30.23F
SEDALIA        CLOUDY    63  53  70 S8        30.24S
WHITEMAN AFB   CLOUDY    62  54  75 SE3       30.22S
WARRENSBURG    CLOUDY    61  52  72 SE7       30.22S
OSAGE BEACH    CLOUDY    61  52  72 CALM      30.24F

$$
MOZ051-052-059>065-230600-
...EAST CENTRAL MISSOURI...

CITY           SKY/WX    TMP DP  RH WIND       PRES   REMARKS
ST LOUIS INTL  CLOUDY    67  52  58 CALM      30.25F
SPIRIT OF STL  CLOUDY    60  58  92 W3        30.25S
ST CHARLES     CLOUDY    62  57  83 CALM      30.24F

$$
MOZ072>076-082>087-097>100-106>115-230600-
...SOUTH CENTRAL AND SOUTHEAST MISSOURI...

CITY           SKY/WX    TMP DP  RH WIND       PRES   REMARKS
CAPE GIRARDEAU CLOUDY    57  56  96 E3        30.25F
FARMINGTON     CLOUDY    59  54  82 CALM      30.30S
POPLAR BLUFF   PTCLDY    59  56  89 CALM      30.23F
WEST PLAINS    CLOUDY    58  48  69 CALM      30.26S

$$


USA.gov is the U.S. government's official web portal to all federal, state and local government web resources and services.